C/2015 O1 ( PanSTARRS )

Japanese version
Home page
Updated on December 31, 2016

---------------------------------------------------------------------

* Profile

Discovery Date July 19, 2015
Magnitude 19.6 mag
Discoverer Pan-STARRS 1 telescope (Haleakala)

* Pictures

* Orbital Elements

Epoch 2018 Feb. 11.0 TT = JDT 2458160.5
T 2018 Feb. 19.03879 TT                                 MPCW
q   3.7294870            (2000.0)            P               Q
z  -0.0000314      Peri.   89.59826     -0.52098584     -0.50148058
 +/-0.0000027      Node   299.85556     -0.59857200     +0.79153913
e   1.0001171      Incl.  127.21084     +0.60851074     +0.34926068
From 298 observations 2015 June 15-2016 Oct. 11, mean residual 0".5.

* Finding Charts

* Magnitudes Graph

        m1 = 4.8 + 5 log d + 10.0 log r

---------------------------------------------------------------------

The orbital elements are published on M.P.E.C. 2016-V116.
The charts are made with StellaNavigator Ver.8 (AstroArts).
The magnitudes graphs are made with Comet for Windows.

---------------------------------------------------------------------

Copyright(C) Seiichi Yoshida (comet@aerith.net). All rights reserved.